Change the Weather History Date:

Friday, March 15, 2013

  Actual Average Record
Temperature  
Mean Temperature 52 °F -  
Max Temperature 66 °F 66 °F 71 °F (2009)
Min Temperature 39 °F 50 °F 39 °F (2013)
Degree Days  
Heating Degree Days 12    
Growing Degree Days 2 (Base 50)    
Moisture  
Dew Point 41 °F    
Average Humidity 67    
Maximum Humidity 93    
Minimum Humidity 22    
Precipitation  
Precipitation 0.00 in 0.09 in - ()
Sea Level Pressure  
Sea Level Pressure 30.03 in    
Wind  
Wind Speed 5 mph ()    
Max Wind Speed 14 mph    
Max Gust Speed -    
Visibility 4.8 miles    
Events      
Averages and records for this station are not official NWS values.
T = Trace of Precipitation, MM = Missing Value Source: Averaged Metar Reports

Daily Weather History Graph

Daily Weather History Graph

Search for Another Location

Airport or City:

Trip Planner

Search our weather history database for the weather conditions in past years. The results will help you decide how hot, cold, wet, or windy it might be!

Date:

Astronomy

Mar. 15, 2013 Rise Set
Actual Time 6:34 AM WET 6:31 PM WET
Civil Twilight 6:08 AM WET 6:56 PM WET
Nautical Twilight 5:39 AM WET 7:26 PM WET
Astronomical Twilight 5:09 AM WET 7:56 PM WET
Moon 8:24 AM WET (3/15) 10:22 PM WET (3/15)
Length of Visible Light 12h 47m
Length of Day
11h 56m
Waxing Crescent, 14% of the Moon is Illuminated
Mar 15
Waxing Crescent
Mar 19
First Quarter
Mar 27
Full
Apr 3
Last Quarter
Apr 10
New

Hourly Weather History & Observations

Time (WET) Temp. Windchill Dew Point Humidity Pressure Visibility Wind Dir Wind Speed Gust Speed Precip Events Conditions
12:00 AM 42.8 °F 41.1 °F 37.4 °F 81% 30.09 in 5.0 mi ENE 3.5 mph - N/A   Unknown
12:30 AM 41.0 °F - 37.4 °F 87% 30.09 in 5.0 mi Calm Calm - N/A   Unknown
1:00 AM 41.0 °F 39.0 °F 37.4 °F 87% 30.06 in 3.7 mi ENE 3.5 mph - N/A   Unknown
1:30 AM 39.2 °F 37.0 °F 35.6 °F 87% 30.06 in 3.7 mi ENE 3.5 mph - N/A   Unknown
2:00 AM 42.8 °F 40.1 °F 39.2 °F 87% 30.06 in 4.3 mi ENE 4.6 mph - N/A   Unknown
2:30 AM 42.8 °F 41.1 °F 39.2 °F 87% 30.06 in 3.1 mi East 3.5 mph - N/A   Unknown
3:00 AM 42 °F - 39 °F 83% 30.06 in 3 mi ESE 4.6 mph - -  
3:00 AM 42.8 °F 40.1 °F 39.2 °F 87% 30.04 in 3.1 mi ESE 4.6 mph - N/A   Unknown
3:30 AM 41.0 °F 39.0 °F 37.4 °F 87% 30.04 in - ENE 3.5 mph - N/A   Unknown
4:00 AM 41.0 °F - 37.4 °F 87% 30.04 in 3.1 mi East 1.2 mph - N/A   Unknown
4:30 AM 41.0 °F - 37.4 °F 87% 30.04 in 3.7 mi ESE 2.3 mph - N/A   Unknown
5:00 AM 39.2 °F - 37.4 °F 93% 30.04 in 5.0 mi Variable 2.3 mph - N/A   Unknown
5:30 AM 42.8 °F 39.3 °F 39.2 °F 87% 30.04 in 5.0 mi East 5.8 mph - N/A   Unknown
6:00 AM 41 °F - 38 °F 84% 30.04 in 5 mi ESE 4.6 mph - -   Clear
6:00 AM 41.0 °F 38.0 °F 37.4 °F 87% 30.04 in 5.0 mi ESE 4.6 mph - N/A   Unknown
6:30 AM 41.0 °F 39.0 °F 37.4 °F 87% 30.04 in 5.0 mi SSE 3.5 mph - N/A   Unknown
7:00 AM 42.8 °F 39.3 °F 37.4 °F 81% 30.04 in 6.2 mi SE 5.8 mph - N/A   Mostly Cloudy
7:30 AM 42.8 °F 41.1 °F 39.2 °F 87% 30.04 in 6.2 mi SE 3.5 mph - N/A   Mostly Cloudy
8:00 AM 48.2 °F - 44.6 °F 87% 30.04 in 6.2 mi SE 3.5 mph - N/A   Mostly Cloudy
8:30 AM 53.6 °F - 44.6 °F 72% 30.04 in 3.1 mi ESE 4.6 mph - N/A   Mostly Cloudy
9:00 AM 55 °F - 43 °F 54% 30.07 in 6 mi ESE 5.8 mph - -   Clear
9:00 AM 55.4 °F - 42.8 °F 63% 30.06 in - ESE 5.8 mph - N/A   Clear
9:30 AM 57.2 °F - 42.8 °F 59% 30.06 in - ESE 6.9 mph - N/A   Clear
10:00 AM 59.0 °F - 41.0 °F 51% 30.06 in - ESE 8.1 mph - N/A   Clear
10:30 AM 60.8 °F - 42.8 °F 52% 30.06 in - ESE 9.2 mph - N/A   Clear
11:00 AM 62.6 °F - 41.0 °F 45% 30.06 in - SE 8.1 mph - N/A   Clear
11:30 AM 62.6 °F - 41.0 °F 45% 30.06 in - ESE 5.8 mph - N/A   Clear
12:00 PM 64 °F - 41 °F 31% 30.07 in 6 mi East 3.5 mph - -   Partly Cloudy
12:00 PM 64.4 °F - 41.0 °F 42% 30.06 in - Variable 3.5 mph - N/A   Clear
12:30 PM 64.4 °F - 39.2 °F 40% 30.04 in - SE 4.6 mph - N/A   Clear
1:00 PM 66.2 °F - 39.2 °F 37% 30.04 in - East 4.6 mph - N/A   Clear
1:30 PM 64.4 °F - 44.6 °F 49% 30.01 in - ENE 12.7 mph - N/A   Clear
2:00 PM 64.4 °F - 44.6 °F 49% 30.01 in - ENE 13.8 mph - N/A   Clear
3:00 PM 66 °F - 37 °F 22% 30.00 in 6 mi East 9.2 mph - -   Clear
3:00 PM 66.2 °F - 39.2 °F 37% 29.98 in - East 9.2 mph - N/A   Clear
4:00 PM 64.4 °F - 41.0 °F 42% 29.98 in - ESE 11.5 mph - N/A   Clear
5:00 PM 62.6 °F - 41.0 °F 45% 29.98 in - East 9.2 mph - N/A   Clear
6:00 PM 58 °F - 45 °F 52% 29.99 in 6 mi ENE 9.2 mph - -   Clear
6:00 PM 59.0 °F - 44.6 °F 59% 29.98 in - ENE 9.2 mph - N/A   Clear
7:00 PM 53.6 °F - 42.8 °F 67% 29.98 in - East 9.2 mph - N/A   Clear
8:00 PM 53.6 °F - 41.0 °F 62% 29.98 in - East 11.5 mph - N/A   Clear
9:00 PM 52 °F - 42 °F 60% 29.99 in 6 mi ESE 11.5 mph - -   Clear
9:00 PM 51.8 °F - 42.8 °F 71% 29.98 in - ESE 11.5 mph - N/A   Clear
9:30 PM 51.8 °F - 42.8 °F 71% 29.98 in - East 10.4 mph - N/A   Clear
10:00 PM 51.8 °F - 42.8 °F 71% 29.98 in - East 12.7 mph - N/A   Clear
10:30 PM 51.8 °F - 42.8 °F 71% 29.98 in - ESE 11.5 mph - N/A   Clear
11:00 PM 51.8 °F - 42.8 °F 71% 29.95 in - ESE 12.7 mph - N/A   Clear
11:30 PM 51.8 °F - 42.8 °F 71% 29.95 in - ESE 11.5 mph - N/A   Clear